Home   Weather   Guadalajara   Past weeks

Flag for Mexico Past Weather in Guadalajara, Jalisco, Mexico — Yesterday and Last 2 Weeks

Now
75 °F

Sunny.


Feels Like: 75 °F
Forecast: N/A
Wind: 16 mph from Northwest

Location: Don Miguel / Guadalaj

Current Time: Jan 21, 2017 at 5:50:59 pm

Latest Report: Jan 21, 2017 at 4:58 pm


Visibility: 10 mi

Pressure: 30.11 "Hg (25.21 "Hg at 1543m altitude)

Humidity: 14%

Dew Point: 23 °F

Location of GuadalajaraLocation

Past Weather in Guadalajara — Graph

°F

Guadalajara Temperature Yesterday

Maximum temperature yesterday: 73 °F (at 3:52 pm)
Minimum temperature yesterday: 50 °F (at 1:48 am)
Average temperature yesterday: 61 °F

High & Low Weather Summary for the Past Weeks

 TemperatureHumidityPressure
High84 °F (Jan 6, 3:50 pm)93% (Jan 21, 5:07 am)30.51 "Hg (Jan 21, 5:07 am)
Low36 °F (Jan 10, 6:42 am)11% (Jan 11, 2:56 pm)29.73 "Hg (Jan 19, 2:49 pm)
Average59 °F48%30.13 "Hg
* Reported Jan 6 3:50 pm — Jan 21 3:49 pm, Guadalajara, Weather by CustomWeather, © 2017

Note: Actual official high and low records may vary slightly from our data, if they occured in-between our weather recording intervals... More about our weather records

Advertising

Guadalajara Weather History for the Previous 24 Hours

Scroll right to see more
 ConditionsComfort  
Time TempWeatherWind HumidityBarometerVisibility
3:49 pm
Sat, Jan 21
75 °FSunny.16 mph16%30.11 "Hg10 mi
3:37 pm77 °FSunny.21 mph17%30.10 "Hg10 mi
2:54 pm75 °FSunny.28 mph16%29.82 "Hg10 mi
1:51 pm73 °FSunny.9 mph17%30.14 "Hg10 mi
12:50 pm72 °FSunny.14 mph19%30.19 "Hg10 mi
11:49 am70 °FSunny.14 mph15%29.93 "Hg10 mi
10:55 am64 °FSunny.3 mph34%30.22 "Hg10 mi
9:49 am59 °FSunny.No wind59%30.22 "Hg10 mi
8:50 am50 °FSunny.No wind76%30.02 "Hg10 mi
7:49 am39 °FSunny.No wind93%30.19 "Hg8 mi
6:51 am39 °FPassing clouds.No wind93%30.17 "Hg8 mi
5:54 am39 °FPassing clouds.No wind93%29.93 "Hg8 mi
5:07 am41 °FPassing clouds.No wind93%30.15 "Hg8 mi
3:56 am41 °FPassing clouds.2 mph87%30.15 "Hg8 mi
3:01 am45 °FPassing clouds.No wind87%30.15 "Hg8 mi
1:06 am50 °FPassing clouds.No wind76%30.16 "Hg8 mi
11:55 pm
Fri, Jan 20
52 °FPassing clouds.No wind77%30.00 "Hg8 mi
10:53 pm57 °FPassing clouds.6 mph55%30.16 "Hg8 mi
9:50 pm57 °FPassing clouds.2 mph59%30.16 "Hg8 mi
8:53 pm59 °FPassing clouds.5 mph45%29.89 "Hg10 mi
7:51 pm61 °FPassing clouds.3 mph42%30.13 "Hg10 mi
6:49 pm66 °FPassing clouds.9 mph32%30.09 "Hg10 mi
5:44 pm72 °FScattered clouds.8 mph27%29.77 "Hg10 mi
5:13 pm72 °FScattered clouds.12 mph25%30.06 "Hg10 mi
Weather by CustomWeather, © 2017

See weather overviewHow to use our weather pages